This is the latest recevied weather packets stored in our database for station/object HA3YA-WX. If no packets are shown the sender has not sent any weather packets the latest 10 day(s).
| Time | Temp. | Humidity | Pressure | Rain* | Wind** | Luminosity | Snow |
|---|---|---|---|---|---|---|---|
| 1777716092 | 22.78° C | 37% | 1010 hPa | - | - | - | - |
| 1777715493 | 23.33° C | 37% | 1010 hPa | - | - | - | - |
| 1777714892 | 22.22° C | 39% | 1010 hPa | - | - | - | - |
| 1777714293 | 22.22° C | 40% | 1010.8 hPa | - | - | - | - |
| 1777713692 | 22.78° C | 43% | 1010 hPa | - | - | - | - |
| 1777713093 | 21.11° C | 44% | 1010 hPa | - | - | - | - |
| 1777712492 | 21.67° C | 45% | 1011 hPa | - | - | - | - |
| 1777711893 | 20.56° C | 47% | 1011 hPa | - | - | - | - |
| 1777711292 | 20° C | 48% | 1011 hPa | - | - | - | - |
| 1777710692 | 18.33° C | 50% | 1011 hPa | - | - | - | - |
| 1777710092 | 17.22° C | 52% | 1011.4 hPa | - | - | - | - |
| 1777709493 | 16.11° C | 52% | 1011.4 hPa | - | - | - | - |
| 1777708893 | 15.56° C | 53% | 1011.4 hPa | - | - | - | - |
| 1777708293 | 15.56° C | 54% | 1011.4 hPa | - | - | - | - |
| 1777707693 | 15.56° C | 56% | 1011.4 hPa | - | - | - | - |
| 1777707092 | 15.56° C | 56% | 1011.4 hPa | - | - | - | - |
| 1777706492 | 15.56° C | 56% | 1011.4 hPa | - | - | - | - |
| 1777705893 | 15° C | 57% | 1011.4 hPa | - | - | - | - |
| 1777705293 | 14.44° C | 57% | 1011.4 hPa | - | - | - | - |
| 1777704692 | 13.89° C | 56% | 1011.4 hPa | - | - | - | - |
| 1777704092 | 14.44° C | 56% | 1011.4 hPa | - | - | - | - |
| 1777703492 | 14.44° C | 55% | 1011.5 hPa | - | - | - | - |
| 1777702892 | 13.89° C | 56% | 1011.5 hPa | - | - | - | - |
| 1777702293 | 12.78° C | 57% | 1011.5 hPa | - | - | - | - |
| 1777701692 | 11.67° C | 57% | 1011.5 hPa | - | - | - | - |
* Rain since midnight (hover to see other rain measurements)
** Current wind speed in m/s (hover to see current wind gust speed)